RH
17 17 16 16 16 15 14 13 11 9 7 6 6 6 6 6 6 6 6 6 6 6 8 10 12 12 12 11 10 10 11 11 13 14 15 16 19 21 22 26 29 28 28 28 29 30 32 37 43 51 58 64 66 67 69 71 73 74 79 84 84 84 87 86 83 79 76 71 68 65 61 62 64 60 54 53 51 45 44 45 47 51 51 52 51 48 48 50
16 16 15 15 15 15 14 13 11 9 7 6 5 5 6 6 6 6 6 6 6 6 6 7 10 12 12 12 11 11 10 11 12 12 14 15 16 18 20 23 27 28 28 28 28 30 35 39 44 51 57 60 62 66 70 72 73 73 77 83 85 85 85 84 84 82 79 75 70 66 63 61 61 59 55 55 52 43 44 46 46 52 54 54 52 49 50 51
16 15 14 14 14 14 13 13 12 10 8 6 5 5 5 5 6 6 6 6 7 7 7 6 7 9 11 12 12 11 11 12 13 13 14 14 14 16 18 22 24 25 26 27 28 31 36 41 45 49 52 54 58 65 71 72 72 72 75 83 86 84 82 83 85 83 78 76 72 67 63 62 61 59 57 55 53 47 45 46 46 53 56 54 53 51 51 52
15 14 13 13 13 12 13 13 13 12 10 7 5 5 4 4 5 6 6 6 6 7 7 7 6 7 8 10 12 12 12 14 15 15 14 13 13 14 16 20 22 24 25 26 28 31 35 39 42 44 47 50 55 64 69 72 72 70 74 82 86 85 82 83 85 83 77 75 73 66 62 63 62 60 57 53 54 51 47 46 43 49 54 53 52 51 52 52
15 13 12 11 11 11 12 13 13 12 11 10 7 5 4 4 4 5 6 6 7 7 7 7 7 7 6 7 10 11 13 17 17 15 14 13 12 13 14 17 20 23 23 25 28 31 34 37 39 42 45 47 55 66 68 70 72 70 73 79 83 84 84 84 85 83 79 75 73 67 63 65 62 59 55 50 52 49 45 46 42 45 50 49 49 51 51 51
14 12 11 11 9 9 11 12 12 12 11 10 8 7 5 4 4 4 5 6 7 7 7 7 7 7 7 6 7 10 13 18 18 16 16 15 13 12 13 15 18 21 21 23 27 30 35 37 39 43 44 45 54 66 69 71 72 71 72 76 80 83 85 86 83 83 80 76 74 69 65 64 60 56 53 49 50 46 42 45 44 45 49 47 47 49 50 50
14 11 10 10 9 9 11 11 11 11 10 10 9 8 7 6 5 5 5 5 6 7 7 7 7 6 7 7 7 8 10 16 19 18 18 17 16 14 13 14 15 19 19 22 27 30 34 39 43 43 44 47 54 64 71 73 71 71 71 72 77 80 84 85 81 83 81 78 76 70 66 64 60 55 51 50 49 48 43 42 44 46 49 49 47 47 48 50
13 11 10 9 8 9 10 10 11 10 10 10 9 8 8 7 6 6 6 6 6 7 7 8 8 6 6 6 7 9 10 14 18 19 20 18 17 16 15 14 14 17 18 21 25 30 35 41 46 43 45 50 55 66 72 72 70 70 72 72 77 80 84 85 81 82 82 78 75 72 70 68 62 54 50 49 48 50 45 40 42 45 48 49 48 47 47 49
11 10 10 9 7 9 10 10 10 10 11 10 10 10 10 9 8 8 8 7 7 7 7 7 7 7 7 6 7 12 14 16 18 20 21 19 17 17 17 16 13 15 16 19 23 28 36 43 45 43 46 49 56 67 70 71 71 70 71 74 79 81 85 87 84 85 84 80 75 74 75 70 62 53 50 50 47 50 48 45 44 43 47 48 48 46 46 48
10 10 9 8 7 8 9 9 10 10 10 10 11 11 11 11 11 11 10 8 8 8 7 7 7 7 7 7 8 13 17 17 18 19 20 19 18 16 17 17 15 14 15 19 22 29 39 44 44 42 44 50 59 68 69 70 71 70 71 75 81 82 85 87 89 90 85 81 76 76 80 72 61 53 52 53 49 51 50 49 48 45 45 46 47 47 46 47
10 9 9 8 7 8 8 9 9 9 9 9 10 11 11 12 12 12 12 10 8 8 8 7 7 7 8 7 8 12 16 17 17 18 18 18 17 15 16 18 17 15 15 18 23 31 40 43 42 42 44 53 65 70 70 71 70 69 70 75 81 82 84 86 90 90 84 82 78 77 82 73 60 54 53 53 50 51 50 50 52 49 47 45 46 48 47 47
9 10 9 7 7 7 8 8 8 8 9 9 9 10 11 12 12 13 12 11 9 9 9 8 8 8 8 7 7 11 15 16 15 16 18 16 15 15 15 18 18 17 15 17 25 35 40 40 40 42 45 54 66 71 71 71 69 70 70 74 80 80 83 86 89 88 84 86 81 79 84 76 63 57 56 55 51 51 51 52 53 52 51 48 46 47 47 47
10 9 8 7 7 7 8 8 8 8 8 8 9 10 11 12 12 12 11 10 9 10 10 10 11 9 8 7 7 9 13 15 14 15 17 16 15 14 14 15 18 19 16 17 27 34 36 36 40 42 44 55 66 71 71 69 70 72 73 75 78 79 82 85 86 85 86 89 85 83 86 80 69 61 59 59 54 52 54 53 53 52 52 50 47 47 47 47
10 9 8 7 7 7 7 7 8 8 8 8 10 10 11 11 11 10 10 10 11 11 11 11 13 11 9 9 9 9 11 13 14 14 14 15 15 13 12 12 16 19 17 20 28 31 31 34 39 40 43 55 66 70 69 68 69 73 76 77 77 81 83 83 81 82 87 91 88 86 86 80 71 62 59 60 56 54 55 53 54 53 49 48 47 47 48 49
10 9 8 8 7 7 7 7 7 8 9 10 10 10 10 10 11 10 10 12 12 12 12 13 13 11 10 9 10 10 9 11 14 14 13 15 15 14 12 11 14 18 17 22 29 29 31 32 34 40 49 56 62 69 71 69 70 72 78 79 77 82 86 85 83 83 88 91 89 88 85 78 70 62 58 59 57 54 54 53 54 52 46 45 46 47 49 52
10 9 9 8 8 7 7 8 8 8 9 10 10 10 10 10 11 11 11 12 12 13 14 15 14 13 14 12 12 12 10 11 13 14 14 15 15 14 14 12 14 18 18 23 29 29 29 30 32 42 54 60 62 69 73 74 74 73 78 81 79 82 86 88 86 84 87 91 90 89 85 77 69 63 58 58 58 55 55 54 53 50 43 42 45 47 50 53
10 10 10 9 8 8 8 8 9 9 9 9 9 10 10 10 10 12 12 12 12 13 15 16 16 16 16 14 15 15 12 11 11 12 13 14 15 14 15 14 14 16 18 24 30 29 28 30 38 47 53 59 63 68 75 79 77 74 78 81 81 82 84 88 89 85 87 89 89 89 87 81 74 66 60 60 60 57 56 55 52 49 44 40 43 45 49 51
10 10 10 9 9 9 9 10 10 9 9 9 9 10 10 10 9 11 12 13 13 13 15 17 17 19 18 16 17 16 14 12 11 11 13 14 14 13 14 15 15 15 19 26 30 30 29 32 42 50 51 57 64 67 73 75 72 72 77 81 82 81 83 88 88 86 86 86 90 90 87 84 80 70 66 65 64 58 54 53 50 47 43 40 41 43 46 48
11 10 10 10 10 10 10 10 9 9 10 10 10 10 11 11 10 11 12 13 14 15 16 16 17 21 20 18 18 17 15 14 13 12 13 14 13 12 12 14 17 15 19 27 30 30 30 34 43 50 51 58 65 66 67 68 67 70 75 79 81 80 82 85 86 86 86 86 89 90 86 85 82 76 72 69 65 60 53 50 48 44 41 39 40 42 43 45
11 11 10 11 11 12 12 11 11 12 12 12 12 12 14 15 15 15 13 13 13 14 16 15 16 18 18 17 18 17 16 16 16 15 14 13 12 12 11 13 17 17 20 27 29 29 29 34 42 47 51 60 66 67 67 68 69 73 77 80 80 79 79 82 84 85 85 87 89 90 87 86 84 80 77 71 67 61 54 49 46 44 41 37 37 40 42 44
11 11 12 13 14 15 15 15 16 16 16 16 16 16 17 19 20 20 17 15 15 15 15 13 14 16 15 16 17 17 18 19 19 17 16 14 12 13 13 13 17 19 23 25 26 29 29 30 35 39 48 61 67 68 69 70 71 74 78 81 79 78 77 78 81 81 83 87 89 89 89 87 85 83 80 74 69 65 57 51 47 46 43 38 36 37 40 43
11 12 14 16 17 18 18 18 19 19 19 19 19 19 20 21 22 22 20 19 16 16 16 15 15 16 16 17 18 17 18 20 19 18 17 15 13 14 14 14 18 21 25 25 24 29 31 31 31 33 41 55 63 67 70 71 73 75 77 80 81 78 76 77 79 78 79 84 87 88 88 89 88 85 81 77 73 67 60 52 48 47 46 42 37 35 38 42
12 13 16 18 18 18 19 19 20 20 20 21 21 21 21 22 22 22 21 20 17 16 17 17 17 16 17 18 19 19 20 21 20 18 17 16 15 15 15 15 19 21 24 25 24 27 31 31 32 33 36 48 57 64 68 68 70 74 75 77 80 78 76 76 76 76 76 79 84 86 87 90 90 88 84 81 78 72 63 55 50 48 47 46 42 38 39 41
12 14 16 18 18 18 19 20 21 21 21 22 22 22 23 23 23 22 20 20 20 18 16 17 16 15 16 17 18 20 21 20 20 19 18 17 16 15 16 16 18 20 23 25 23 24 29 31 32 34 35 43 52 58 62 60 63 72 74 72 74 76 76 75 73 73 74 76 79 82 87 89 88 88 87 84 84 81 72 63 54 49 47 46 46 43 43 44
13 14 16 18 18 18 19 19 20 20 21 22 22 22 23 24 23 22 21 21 21 19 16 15 17 17 17 18 19 20 21 21 21 20 19 18 17 16 17 16 16 19 22 24 22 21 26 30 33 34 33 39 47 53 56 54 59 70 71 67 68 72 76 78 75 72 76 79 77 79 85 86 83 84 85 85 87 86 81 73 61 53 48 47 48 46 44 45
13 14 16 18 18 18 19 19 20 19 20 21 21 22 24 25 24 22 23 25 22 19 17 16 17 17 19 21 22 22 23 23 21 21 20 19 19 18 18 18 17 19 21 23 20 18 23 29 32 33 32 34 40 48 52 51 59 70 68 64 67 72 76 79 76 73 78 82 78 76 80 82 81 79 77 82 87 85 83 80 70 59 52 49 48 47 46 45
14 15 16 18 18 19 19 19 19 19 20 21 21 23 24 24 24 23 25 28 24 20 20 20 20 20 21 22 23 25 26 26 23 23 23 22 21 19 20 20 18 18 20 20 19 17 19 24 27 29 30 31 34 42 47 48 57 66 64 63 67 71 75 76 76 75 76 77 78 78 78 80 82 77 72 77 84 85 84 83 78 67 57 52 49 48 49 46
14 14 16 18 19 19 20 19 20 20 20 21 21 22 23 23 24 25 27 27 23 20 22 23 22 22 23 23 24 26 27 28 27 25 24 23 22 21 21 21 20 20 20 20 19 18 18 22 24 25 28 29 30 38 43 46 55 61 61 62 64 70 75 75 75 77 76 76 79 80 78 79 80 76 73 75 80 82 81 81 81 74 62 56 52 49 50 50
13 14 16 18 20 20 20 20 20 21 21 21 20 21 22 21 22 25 28 24 19 19 22 23 23 23 23 23 25 25 25 27 28 27 26 25 23 22 21 21 21 20 20 20 19 18 19 21 22 23 26 25 27 36 40 45 55 60 60 59 63 72 77 77 78 79 79 79 79 78 77 79 78 73 74 77 78 76 76 78 80 77 67 61 57 51 50 52
13 14 16 18 21 21 20 20 21 21 21 21 21 21 20 20 23 26 25 20 17 19 21 21 22 22 23 24 24 25 26 27 27 26 25 25 24 22 21 21 21 21 22 21 18 18 19 20 22 23 23 22 24 34 41 48 55 59 59 58 65 76 80 80 81 81 82 80 75 73 74 79 77 69 69 72 68 65 69 76 80 78 71 64 61 57 52 52
13 14 15 18 21 21 21 21 21 21 20 21 22 22 20 20 26 27 22 16 17 19 20 20 21 21 22 24 24 25 27 28 28 27 25 24 24 22 22 22 22 24 28 24 19 19 20 20 23 23 22 21 25 36 47 52 52 54 57 57 66 80 82 80 81 81 83 80 74 70 71 80 79 67 63 63 61 60 64 71 76 77 74 68 65 62 59 54
13 14 15 18 21 23 22 22 22 21 20 21 21 21 22 21 20 22 19 16 17 19 20 21 22 23 23 23 23 24 26 28 28 28 25 24 24 24 25 26 26 26 29 26 22 22 21 20 21 21 21 23 28 41 51 54 51 51 54 58 70 83 83 82 82 80 79 77 73 72 72 78 74 61 59 62 62 64 64 64 67 71 73 73 70 66 64 60
14 14 15 17 20 23 23 22 22 21 20 20 18 18 24 22 15 17 19 17 16 17 20 22 23 24 25 24 25 25 26 26 26 25 24 24 25 26 26 27 26 25 27 27 24 24 24 21 19 19 21 23 29 41 50 55 54 49 50 58 69 79 80 82 80 74 74 74 73 74 75 73 66 60 62 63 63 65 64 63 64 65 68 72 75 71 68 66
12 13 15 17 20 23 23 22 22 22 20 18 17 18 21 19 16 18 19 16 16 16 18 22 24 26 26 27 27 26 26 25 25 25 26 27 28 29 29 28 26 27 29 27 26 27 27 24 20 20 22 23 27 36 44 52 55 49 47 53 60 63 66 74 75 70 74 78 77 76 74 69 63 61 63 64 63 63 64 65 65 65 67 71 76 76 72 69
8 11 12 15 19 22 23 23 24 24 18 16 19 21 19 18 19 20 17 16 16 16 18 22 25 26 27 29 29 27 26 25 26 28 29 30 31 31 31 28 27 30 31 29 28 28 29 28 25 22 23 24 26 32 40 51 59 55 51 54 55 52 53 62 67 67 73 79 78 75 70 63 59 57 58 61 62 64 64 64 65 66 66 70 76 78 74 69
7 8 11 14 18 22 23 24 25 23 17 18 23 22 19 21 19 17 16 16 15 15 18 21 24 27 29 30 30 28 26 25 27 31 32 32 33 32 30 29 29 30 31 32 31 30 29 30 27 24 25 26 27 34 41 47 55 57 56 57 53 49 50 56 65 68 69 71 72 71 66 61 57 53 54 58 59 62 65 63 65 67 66 70 74 77 75 68
7 8 11 13 17 21 24 25 25 21 17 20 23 20 20 21 18 17 17 16 15 16 20 22 24 26 28 29 30 29 27 26 29 33 34 34 34 33 31 30 30 30 31 31 32 31 29 30 29 26 28 29 29 38 46 42 43 52 58 55 47 45 46 51 63 69 62 61 64 66 65 62 56 53 55 60 60 62 65 64 65 67 67 69 72 73 73 67
8 9 12 15 17 21 24 25 25 22 20 23 24 21 22 20 17 18 17 14 16 17 20 23 24 26 27 27 28 29 29 30 32 35 36 36 36 35 33 32 30 31 31 30 32 33 30 31 32 27 30 35 34 42 49 43 39 45 52 49 44 46 45 45 56 62 58 60 60 57 60 60 59 59 60 63 64 64 66 66 65 67 67 69 71 70 70 69
9 10 14 16 18 21 23 24 25 23 22 24 25 22 21 20 18 18 16 15 16 17 20 23 24 26 28 26 28 29 30 33 34 36 37 37 38 36 34 33 32 31 31 30 32 35 33 33 34 30 31 37 40 43 47 45 41 40 43 45 44 46 45 44 48 51 52 57 56 49 50 55 62 68 68 67 67 67 69 69 67 68 68 69 71 71 70 69
9 12 16 18 19 21 23 24 25 26 24 24 26 23 19 18 17 15 14 14 15 17 19 22 24 27 28 27 28 29 31 35 34 34 36 37 38 37 35 33 33 33 32 31 32 35 36 36 36 34 34 38 41 41 40 41 40 35 37 42 42 40 40 39 39 40 41 49 53 46 42 53 66 71 71 70 68 68 71 72 70 69 70 70 71 72 72 71
10 14 18 18 20 21 22 24 26 27 26 26 26 23 18 17 16 15 14 14 14 15 17 20 23 27 29 30 30 29 31 34 34 35 36 36 36 37 35 33 34 35 35 34 33 34 36 38 39 38 37 40 41 38 36 38 38 35 35 39 39 36 36 36 35 35 34 38 44 41 43 60 72 70 69 69 68 70 72 72 72 72 73 74 72 70 71 72
11 16 20 19 20 22 22 27 30 28 27 26 24 21 19 19 18 16 15 13 14 15 16 18 20 25 29 31 31 32 32 32 32 34 36 35 35 35 34 33 32 34 36 35 33 34 37 39 41 42 42 42 42 39 37 36 37 40 42 42 41 36 35 36 34 33 32 34 39 41 48 67 73 68 69 68 67 71 73 73 74 74 73 74 72 69 70 71
13 18 20 19 21 23 23 30 35 32 28 26 24 22 20 20 19 17 15 14 14 14 15 16 18 22 27 28 30 33 32 31 31 32 32 33 33 32 33 33 32 33 36 37 35 36 40 42 41 44 49 47 44 43 41 37 38 43 46 46 46 42 38 35 36 36 34 37 42 40 47 67 72 68 69 69 69 74 75 75 76 75 73 72 70 70 71 72
18 19 21 21 23 24 26 32 34 34 34 29 24 23 21 19 19 17 16 15 14 14 15 16 16 19 24 27 31 33 32 32 32 31 31 32 32 30 31 34 36 37 37 39 39 36 40 45 43 46 53 50 45 47 45 41 40 42 47 50 52 52 43 33 34 36 32 39 44 38 48 69 72 68 70 70 72 76 76 77 77 77 76 73 71 71 73 76
21 21 23 23 23 23 29 34 33 34 36 31 27 25 22 19 19 18 17 16 14 14 15 16 15 17 21 25 29 31 31 31 32 33 33 33 32 31 31 33 38 42 40 38 40 39 43 48 46 50 57 54 50 52 48 44 45 47 51 54 55 56 47 35 33 32 31 44 50 44 56 71 68 66 70 70 73 77 77 78 78 78 78 77 76 74 73 77
23 26 28 28 26 25 29 36 38 38 36 33 31 28 22 19 19 18 18 16 16 15 15 16 17 17 19 24 27 29 31 31 33 36 36 34 34 33 31 32 36 42 43 38 37 43 51 52 48 52 62 62 58 56 51 49 53 55 54 54 55 55 50 42 38 34 34 48 57 54 59 67 66 67 70 69 72 77 77 78 78 78 79 80 80 79 77 77
24 29 35 35 31 29 31 36 41 42 38 33 31 27 22 20 20 19 18 18 17 17 17 17 18 19 19 23 25 27 30 31 32 35 37 37 38 35 32 32 33 36 39 36 35 43 52 53 51 53 58 60 59 58 56 55 55 55 52 51 53 55 53 50 47 43 40 47 58 60 57 61 66 69 67 66 69 72 75 77 77 78 79 79 80 82 82 82
26 30 35 35 34 35 36 38 43 45 39 33 32 29 23 21 21 20 19 19 18 18 19 18 19 19 21 23 23 25 30 31 31 35 38 37 39 39 33 31 33 33 34 35 36 41 48 51 51 53 54 57 59 60 59 56 53 51 50 49 50 53 57 58 57 56 51 49 55 60 60 64 70 69 66 65 64 67 71 73 74 77 79 78 79 80 82 82
27 30 33 33 34 37 37 39 43 44 39 35 34 32 25 23 23 21 20 19 19 19 20 20 19 19 22 26 27 27 29 30 29 32 36 35 37 38 34 32 34 34 33 35 36 39 46 48 48 52 55 57 60 61 60 57 53 50 49 49 51 52 57 61 61 60 58 57 58 61 65 71 72 69 67 64 61 62 65 66 69 75 77 78 79 80 79 77
26 28 32 33 34 35 37 40 43 42 40 38 36 33 29 26 23 21 20 20 20 21 20 20 21 21 24 29 27 24 26 28 28 29 32 33 35 36 35 33 35 36 36 37 35 36 41 44 45 50 54 55 58 60 59 57 54 52 49 49 52 55 58 63 64 61 60 64 66 67 70 73 71 67 66 64 62 61 60 61 65 69 72 73 73 74 74 73
27 28 30 33 36 36 37 40 43 42 42 41 39 37 34 30 26 24 22 21 22 22 22 23 24 24 24 25 22 19 21 24 25 24 27 29 30 31 32 32 34 36 38 38 37 38 40 42 45 49 49 51 56 58 58 57 54 54 53 49 51 59 63 65 68 67 65 69 71 71 72 73 69 67 65 64 62 61 59 60 62 64 65 66 67 68 69 71
27 32 32 32 34 35 37 41 42 41 41 42 42 41 38 34 31 28 25 23 23 23 24 26 27 26 25 23 20 18 18 19 20 21 22 24 26 26 28 28 30 32 36 38 38 42 45 43 43 47 47 48 52 55 58 59 54 55 57 52 52 60 64 65 68 70 72 72 71 72 72 71 68 67 66 65 64 62 61 61 62 63 62 62 64 66 66 68